Theta_e
358 356 359 360 358 357 355 352 350 349 347 347 348 346 341 341 342 340 335 334 337 333 335 335 334 331 329 328 330 327 326 327 322 321 323 324 328 326 329 329 331 330 329
360 358 356 358 359 356 354 355 354 349 349 349 348 346 342 338 341 340 335 336 334 335 334 332 331 335 330 330 331 329 328 327 322 319 324 324 326 328 329 329 332 335 330
359 359 358 357 358 358 355 356 357 352 351 349 349 345 342 340 340 342 337 334 334 334 335 333 332 332 331 332 333 331 329 329 326 323 321 324 324 325 323 324 326 326 331
359 358 357 357 358 358 359 356 356 357 352 347 347 345 343 340 341 339 336 334 334 334 334 335 334 332 331 334 333 332 329 328 326 325 323 322 322 324 323 320 319 322 323
356 356 355 357 358 359 358 359 356 356 354 350 347 345 343 339 340 336 336 335 334 334 334 334 336 338 338 337 335 332 331 328 326 325 322 319 320 321 318 320 319 320 320
353 354 355 355 356 355 356 356 359 355 356 351 346 345 342 342 335 334 337 336 335 334 333 335 335 339 338 334 333 331 330 327 324 323 320 318 320 323 321 320 319 317 315
348 352 353 353 353 354 355 355 356 357 357 354 350 345 344 342 330 330 335 334 335 334 334 336 336 339 335 334 330 330 330 329 329 325 319 319 319 321 322 319 317 317 316
345 348 351 352 352 354 354 355 355 357 356 356 353 347 345 342 329 328 333 333 333 334 336 336 332 329 331 332 331 330 329 330 329 327 322 324 323 325 324 322 319 316 314
342 344 348 350 351 352 353 353 355 355 356 356 353 348 345 338 323 324 328 330 332 332 332 333 326 326 328 326 328 325 325 327 327 324 325 325 323 323 324 317 313 311 309
342 346 348 350 350 352 354 354 356 356 355 352 346 346 337 337 322 320 324 330 328 329 330 331 326 328 323 321 327 323 324 324 323 322 322 321 319 318 321 317 317 312 310
348 349 351 354 353 356 355 357 356 352 346 343 342 340 338 336 328 318 317 330 329 327 328 332 331 321 316 316 317 324 322 319 319 315 315 315 315 315 318 318 318 315 311
357 355 361 361 362 362 358 354 350 347 344 340 337 335 335 336 325 316 316 319 327 329 327 326 327 318 314 314 315 318 314 314 313 312 312 311 311 313 313 312 313 316 317
357 358 358 357 359 355 351 346 344 343 340 338 336 334 334 336 332 317 314 315 319 327 326 318 314 314 312 312 314 316 313 311 311 310 310 312 311 313 313 309 309 307 306
355 354 351 350 348 348 346 344 341 338 336 335 333 332 332 333 330 322 319 318 317 320 318 317 315 314 313 315 314 312 310 310 310 311 314 311 310 306 305 306 303 302 299
349 346 344 342 334 323 313 323 336 325 331 336 334 333 332 330 329 322 321 322 322 321 317 318 316 314 312 312 312 314 310 312 311 314 316 309 305 304 304 303 301 299 297
340 340 336 335 330 326 322 316 302 302 301 304 311 325 316 313 310 306 306 308 311 311 317 319 314 314 314 314 313 313 316 317 315 316 312 305 303 303 301 301 300 298 298
338 336 335 333 332 329 327 323 316 308 301 299 300 306 309 303 302 300 299 301 305 309 317 318 318 318 316 317 317 318 317 315 315 308 306 304 301 300 301 299 298 298 298
338 324 335 333 333 331 329 324 321 318 316 313 301 302 298 297 297 297 298 304 309 308 314 314 312 313 311 311 308 307 306 307 304 300 299 299 298 299 298 298 297 296 296
338 336 336 335 333 331 332 329 325 324 320 313 304 302 297 296 296 297 299 312 313 312 311 310 312 309 307 308 307 307 304 302 301 299 298 298 300 297 297 297 297 299 299
331 331 333 335 334 334 333 331 326 325 319 313 311 309 303 302 304 305 307 310 311 311 311 310 309 308 307 307 306 304 302 302 301 301 300 299 297 297 296 297 297 295 296
329 325 328 327 328 327 326 326 328 325 320 317 316 312 305 310 310 310 310 312 312 313 310 309 308 307 307 305 304 302 300 299 298 298 297 296 296 296 297 297 296 297 296
327 325 324 323 323 324 324 324 325 325 322 319 318 311 302 312 314 314 314 313 315 315 315 311 307 305 305 303 301 299 297 296 297 296 296 296 296 297 297 296 297 297 295
323 325 322 322 323 321 321 319 318 322 321 319 316 311 308 312 315 316 316 315 315 314 314 312 307 304 303 300 298 297 294 296 297 297 296 295 295 296 296 296 296 295 294
323 324 324 322 323 322 321 319 317 315 317 317 315 314 312 313 316 316 316 314 314 314 314 311 308 303 301 299 297 294 296 295 294 293 293 293 294 295 296 297 295 295 294
323 322 322 321 320 319 319 319 321 319 319 317 317 315 314 315 314 315 315 314 312 311 312 311 307 305 302 295 292 290 289 289 289 291 292 292 292 293 295 294 293 295 295
321 322 320 320 320 319 318 316 318 319 319 317 317 316 316 314 313 313 312 311 310 311 311 308 307 306 303 298 293 288 285 288 288 287 288 289 290 292 295 294 294 295 295
Wind_Speed
19 18 17 15 14 13 8 9 11 7 9 12 13 13 13 11 10 8 7 7 7 7 5 6 7 6 4 3 2 1 2 3 3 4 3 4 2 4 5 5 6 6 5
20 18 18 15 15 14 15 11 10 12 10 14 14 13 13 12 10 11 10 7 8 7 7 6 6 4 6 5 4 4 3 3 4 4 2 2 3 3 5 4 5 4 5
19 18 17 17 16 17 17 15 11 13 11 13 15 16 14 13 12 12 9 7 6 6 7 7 7 7 6 4 5 5 3 1 1 2 4 3 4 3 4 3 4 4 3
20 19 19 19 20 18 17 16 14 13 14 13 15 15 14 13 11 10 8 8 7 6 7 7 7 7 6 6 5 5 4 3 2 3 3 3 2 3 2 2 3 2 4
21 20 21 19 18 16 16 15 15 13 13 12 11 11 10 10 8 13 13 12 9 7 7 6 7 7 9 8 4 6 5 2 2 4 4 3 4 2 2 2 3 2 3
21 22 19 18 17 16 16 14 14 15 11 12 11 10 10 9 15 15 14 10 7 7 6 6 6 10 8 4 4 9 7 2 4 3 3 4 4 3 1 2 2 2 4
21 20 20 18 17 18 15 14 13 15 11 13 11 12 12 12 12 10 11 6 7 7 7 6 6 4 6 1 5 6 7 11 15 9 5 5 3 4 3 3 4 3 4
20 20 20 20 20 17 17 15 15 12 15 12 13 11 11 8 14 12 13 7 6 7 7 7 6 7 5 6 6 7 8 10 9 8 7 9 7 7 6 6 6 4 3
20 20 21 20 19 18 18 17 13 13 10 10 11 11 11 7 13 13 9 6 5 5 5 6 7 7 9 14 7 6 6 5 6 11 13 12 12 8 8 1 4 4 4
22 21 18 19 18 18 17 16 12 10 8 8 8 9 11 10 12 12 11 5 6 5 6 7 12 9 10 9 6 5 6 5 3 4 4 4 6 7 11 7 6 4 3
15 12 15 15 16 15 15 12 10 10 10 9 9 6 8 8 10 14 13 7 7 6 6 6 7 12 11 9 9 6 6 4 1 2 4 4 5 5 5 4 5 5 4
11 14 12 13 12 12 15 10 11 11 11 9 9 6 5 6 9 12 15 14 8 6 5 4 5 10 11 9 8 8 8 5 2 3 3 4 4 4 3 4 5 5 5
13 12 12 11 12 12 13 12 9 10 8 8 7 6 5 5 5 12 16 15 7 4 3 5 5 5 8 6 7 8 8 3 3 2 4 4 3 3 3 4 4 4 4
14 13 11 13 12 11 8 7 9 7 7 7 6 6 4 4 5 4 4 4 6 5 6 4 5 4 3 2 4 4 4 4 4 4 4 3 2 2 2 1 2 2 2
15 13 13 11 12 11 9 5 5 6 5 8 5 5 6 4 5 9 9 6 5 5 5 2 2 2 2 3 3 4 4 4 5 4 3 2 2 2 2 2 2 3 2
14 10 9 9 8 9 9 8 18 11 11 12 6 5 3 3 13 12 12 13 12 11 3 4 4 4 5 5 5 5 4 7 4 2 3 3 2 2 3 3 2 2 3
13 12 10 9 9 8 9 8 8 7 14 13 12 11 7 10 12 12 12 10 7 8 3 4 4 5 5 5 5 3 3 4 4 1 1 1 1 2 3 3 3 3 4
13 11 10 8 9 8 9 9 8 6 3 4 11 6 9 10 9 11 11 8 2 1 3 4 3 2 2 4 4 4 4 4 4 3 2 2 2 1 2 3 4 3 4
11 7 8 7 9 10 9 9 10 10 8 6 4 5 5 8 7 8 6 2 4 4 4 1 3 5 5 5 5 4 3 3 3 1 2 2 3 1 2 4 5 7 6
5 7 10 8 6 10 10 9 9 9 8 7 7 5 5 5 4 5 5 4 3 1 3 5 4 4 5 5 4 4 2 1 1 2 3 2 2 1 3 4 5 4 6
5 2 8 5 7 5 6 7 10 10 9 8 8 8 11 5 5 5 5 5 5 3 5 6 5 5 4 4 4 3 1 2 3 2 3 2 3 3 4 3 4 5 5
5 5 5 4 4 5 4 5 8 11 10 8 6 8 17 4 6 7 6 5 4 4 7 7 5 4 4 5 5 4 1 2 2 2 4 3 3 4 3 4 5 5 4
4 4 4 2 3 5 5 5 5 7 7 6 7 8 6 6 5 6 7 6 7 6 5 5 6 4 5 4 5 4 3 3 3 4 5 4 4 4 4 4 5 5 4
4 6 8 7 6 2 6 8 5 7 7 8 9 8 8 7 5 6 6 6 6 5 5 6 6 9 7 5 5 5 5 5 4 4 5 3 3 5 5 5 3 5 5
5 4 7 5 5 4 4 4 4 5 4 6 6 7 6 5 5 6 6 7 6 7 7 6 6 10 10 11 9 9 9 10 6 5 3 2 3 6 6 4 3 5 5
6 4 5 5 4 2 4 4 5 2 4 5 7 6 6 6 5 6 5 6 6 5 6 6 8 12 13 11 11 13 9 9 7 6 3 0 2 4 5 5 7 5 6
Wind_Direction
185 189 190 192 191 196 192 197 187 183 162 171 177 176 182 179 182 174 185 186 200 208 207 195 215 191 176 184 186 134 159 154 189 296 240 222 206 222 251 240 238 238 247
185 187 193 191 189 195 206 198 186 193 174 178 179 180 187 188 179 182 191 194 203 205 209 204 217 204 189 194 190 205 210 193 171 234 269 293 265 288 243 246 265 260 252
184 186 190 193 193 199 204 203 188 193 188 182 182 186 187 188 187 193 189 193 199 208 205 210 215 214 213 205 211 195 204 230 199 185 260 253 248 240 276 299 276 272 272
183 187 191 195 200 202 201 203 200 193 191 182 188 190 190 186 183 178 176 183 194 206 213 212 214 212 224 212 195 221 185 221 241 245 253 267 245 291 175 194 310 288 283
184 189 196 197 200 202 204 202 202 200 197 187 181 187 182 178 175 183 190 191 181 194 211 214 214 215 216 222 179 226 210 236 320 301 269 268 276 258 215 223 226 262 257
185 193 193 195 197 201 201 200 196 202 193 188 184 172 174 188 191 189 188 189 176 190 204 217 215 219 230 258 267 89 108 72 264 234 248 250 261 241 267 303 283 324 308
191 188 191 192 196 199 194 193 192 195 189 190 181 183 185 191 186 175 173 170 167 189 202 207 222 206 189 201 163 198 144 204 226 240 235 239 248 227 207 255 254 216 235
190 191 189 189 196 193 194 191 194 186 196 183 191 181 181 183 177 167 176 161 182 196 200 199 195 201 172 161 177 216 203 229 218 226 218 253 235 246 209 224 225 238 280
189 193 191 188 189 191 194 193 188 191 187 179 178 172 173 153 156 158 158 179 196 208 206 190 191 207 214 204 199 223 240 242 229 223 224 237 257 249 235 114 270 251 263
194 195 188 186 186 188 185 183 182 172 161 150 147 162 161 155 167 171 171 165 189 206 214 207 216 217 217 213 201 212 246 251 242 307 318 293 246 253 252 205 253 245 249
187 167 170 177 179 172 169 170 136 134 135 141 140 140 152 151 175 180 183 191 206 209 215 215 224 220 225 219 199 197 212 152 244 275 287 294 288 280 270 264 215 185 216
141 154 140 153 154 150 143 136 146 145 135 136 137 140 152 180 167 189 196 205 199 200 201 215 223 211 219 222 185 197 172 164 228 273 292 287 283 286 270 239 249 242 232
131 128 127 117 121 129 128 133 132 125 141 141 148 149 169 172 165 185 198 203 164 169 145 170 183 213 177 184 197 207 185 185 210 228 246 258 233 255 283 308 326 334 311
116 108 108 107 106 107 110 118 122 127 128 139 150 157 161 164 153 158 166 163 183 178 145 157 209 191 156 172 176 201 195 199 203 227 247 244 284 329 329 299 293 288 311
105 104 102 97 96 85 62 48 116 94 134 152 161 149 162 169 180 165 160 168 172 189 132 114 166 199 201 234 240 203 208 216 217 228 243 273 270 316 299 290 269 301 296
106 108 116 112 108 110 110 77 45 56 62 78 104 125 58 272 159 154 156 158 167 163 133 181 202 203 213 221 212 213 204 206 214 214 199 205 253 273 274 302 287 276 278
119 122 119 126 124 127 116 120 117 47 67 60 66 117 125 149 133 131 120 118 136 137 177 202 203 207 218 203 196 186 203 204 169 211 36 354 280 300 334 303 298 295 292
118 144 125 140 130 136 137 133 124 119 136 85 36 61 102 111 116 123 129 106 91 281 203 201 210 158 105 106 108 114 98 89 96 133 186 250 299 313 295 306 308 281 289
127 146 145 146 150 149 148 165 142 153 142 136 116 59 73 96 109 116 124 165 185 199 222 205 123 127 112 102 100 102 114 130 157 165 307 351 307 252 304 305 302 296 304
96 184 145 163 160 164 169 159 157 145 142 159 155 169 154 153 163 176 192 187 199 190 117 124 116 100 106 111 108 104 69 30 326 274 255 242 278 340 305 307 301 309 304
107 67 113 110 148 165 167 148 166 150 165 168 173 166 171 166 167 174 179 187 198 178 145 121 121 127 141 135 121 110 69 300 297 224 139 85 33 350 324 300 310 317 303
104 127 115 153 169 161 179 151 152 164 162 161 156 160 164 199 184 179 179 186 184 178 146 133 125 116 129 126 125 125 170 315 357 132 94 61 28 345 313 320 328 317 309
34 74 122 113 113 91 62 68 91 139 134 138 132 145 174 209 205 185 184 181 160 152 138 123 125 120 126 130 134 136 111 107 129 111 82 50 17 344 323 325 321 312 327
103 95 83 61 41 95 121 102 85 94 125 142 145 169 177 207 198 177 163 155 140 138 149 143 129 133 128 116 95 89 103 117 104 92 98 67 342 335 329 321 310 323 327
85 72 115 134 137 122 86 103 118 136 171 164 149 178 186 181 165 156 172 157 153 159 165 154 146 148 143 138 138 134 128 114 115 102 70 47 325 323 308 287 326 326 323
127 157 136 119 80 121 141 142 146 183 215 178 162 166 172 177 162 160 175 169 161 172 156 160 170 162 153 147 150 149 143 144 132 128 123 57 321 302 305 301 337 328 317